Portada
METAR-TAF:

METAR-TAF

Aeroports :

Caxias do Sul, Rio Grande do Sul, Brasil

latitud: 29-11-44S, longitud: 051-11-23W, altitud: 754 m

Observació

L'informe es va fer fa 58 minuts, a les 19:00 UTC
Vent 6 kt del Est/Nord-Est
Temperatura 24°C
Humitat 54%
Pressió 1012 hPa
Visibilitat 10 km o més
sense núvols per sota de 1500 mi sense presència de cumulonimbus.

METAR: SBCX 131900Z 06006KT CAVOK 24/14 Q1012

Hora: 17:58 (19:58 UTC)


TAF: manca

Observacions i pronòstics meteorològics de més de 4000 aeroports (METAR i TAF).

Les estacions disponibles són els punts grocs i vermells al mapa.

Posi el ratolí al punt desitjat per veure el nom de l'estació.

Feu clic per veure les observacions i els pronòstics meteorològics.

Per canviar el mapa: feu clic els botons verds amb una creu de color negre per apropar; al botó verd amb un guió per allunyar la imatge; o en les fletxes verdes per a mapes adjacents.


METAR-TAF: